Location: Boiro
(42.6475°N, 8.8834°W)
Time: 23:14:57
(UTC+01:00)

Transit 2A - Pass Details

Date: 04 December 2021
Orbit: 591 x 967 km, 66.7° (Epoch: 18 January)

Event Time Altitude Azimuth Distance (km) Brightness Sun altitude
Rises 08:19:14 0° 335° (NNW) 3,648 9.0 -5.7°
Reaches altitude 10° 08:22:50 10° 355° (N) 2,713 8.5 -5.1°
Maximum altitude 08:26:55 17° 35° (NE) 2,217 8.5 -4.4°
Drops below altitude 10° 08:30:58 10° 75° (ENE) 2,677 9.6 -3.8°
Sets 08:34:27 0° 94° (E) 3,578 10.9 -3.2°
